Content
SEND FEEDBACK

Daily
Averages
Monthly
Summary
Hungary

MOSONMAGYAROVAR, HUNGARY


Home > Europe > Hungary
Elevation: 400 feet     Latitude: 47 52N     Longitude: 017 16E

WEATHER
 
SELECT A DAY
Number of Records: 318,455;   Date Range: 7/1/96 - 7/7/14
 
SHARE

PRINT THIS DATA

[ ← Previous Day ]
WEATHER ALMANAC - JANUARY 31, 2013
[ Next Day → ]
[ °C ]   °F
Weather ElementAverageHighLow
Temperature48.7 °F53.6 °F (12:00 am)44.6 °F (6:00 am)
Dewpoint30.9 °F42.8 °F (12:00 am)24.8 °F (7:30 pm)
Humidity47.6 %71 % (12:30 am)25 % (9:00 pm)
Barometer29.94 in30.04 in (9:00 am)29.80 in (12:00 am)
Wind Speed20.7 mph31.1 mph (11:30 am)
Wind Gust39.1 mph (12:30 am)
Weather ElementAverage
Visibility13.7 mi
Wind DirectionWNW (294.1 °)

Weather ElementTotal
Precipitation---
Heating Degree Days15.9 (Base 65)
Averaged from 69 records on January 31, 2013
WEATHER CONDITIONS BREAKOUT
WIND DIRECTION BREAKOUT
WEATHER BY HOUR - JANUARY 31, 2013
[ °C ]   °F
Local TimeTemperatureDewpointHumidityBarometerVisibilityWind DirectionWind SpeedGust SpeedPrecipitationEventsConditions
12:00 AM53.6 °F42.8 °F67 %29.80 in6.2 miWest (280°)17.3 mphRainRain Showers
12:30 AM50.0 °F41.0 °F71 %29.83 in6.2 miNW (310°)27.6 mph39.1 mphRainLight Rain
1:00 AM49.0 °F40.0 °F61 %29.88 in16.0 miWNW (300°)20.1 mphRainLight Rain
1:00 AM48.2 °F39.2 °F71 %29.86 in6.2 miWNW (300°)20.7 mphRainLight Rain
1:30 AM46.4 °F37.4 °F71 %29.89 in6.2 miNW (310°)16.1 mphMostly Cloudy
2:00 AM48.2 °F35.6 °F62 %29.89 in6.2 miWNW (290°)24.2 mphMostly Cloudy
2:30 AM48.2 °F37.4 °F66 %29.92 in6.2 miWNW (290°)21.9 mphRainLight Rain
3:00 AM46.4 °F37.4 °F71 %29.92 in6.2 miNW (310°)17.3 mphScattered Clouds
3:30 AM46.4 °F35.6 °F66 %29.92 inNW (310°)19.6 mphClear
4:00 AM47.0 °F35.0 °F52 %29.94 in19.0 miNW (320°)15.7 mphPartly Cloudy
4:00 AM46.4 °F33.8 °F62 %29.92 inNW (320°)16.1 mphClear
4:30 AM46.4 °F33.8 °F62 %29.92 inNW (310°)16.1 mphClear
5:00 AM46.0 °F34.0 °F51 %29.96 in19.0 miNW (310°)20.1 mphScattered Clouds
5:00 AM46.4 °F33.8 °F62 %29.92 inNW (310°)17.3 mph28.8 mphClear
5:30 AM46.4 °F33.8 °F62 %29.95 inWNW (300°)17.3 mphClear
6:00 AM45.0 °F33.0 °F51 %29.99 in19.0 miWNW (290°)15.7 mphScattered Clouds
6:00 AM44.6 °F33.8 °F66 %29.95 inWNW (290°)16.1 mphClear
6:30 AM44.6 °F32.0 °F61 %29.98 inNW (310°)18.4 mphClear
7:00 AM45.0 °F32.0 °F49 %30.00 in19.0 miWNW (300°)17.9 mphPartly Cloudy
7:00 AM44.6 °F32.0 °F61 %29.98 inWNW (300°)17.3 mphClear
7:30 AM44.6 °F32.0 °F61 %29.98 inWNW (300°)19.6 mphClear
8:00 AM45.0 °F31.0 °F46 %30.01 in25.0 miWNW (290°)22.4 mphPartly Cloudy
8:00 AM44.6 °F30.2 °F57 %29.98 inWNW (290°)21.9 mphClear
8:30 AM48.2 °F32.0 °F54 %30.01 inWNW (290°)18.4 mphClear
9:00 AM47.0 °F32.0 °F44 %30.04 in25.0 miWNW (290°)22.4 mphPartly Cloudy
9:00 AM48.2 °F32.0 °F54 %30.01 inWNW (290°)20.7 mphClear
9:30 AM48.2 °F30.2 °F50 %30.01 inWNW (290°)26.5 mphClear
10:00 AM48.0 °F30.0 °F37 %30.03 in25.0 miWNW (290°)29.1 mphScattered Clouds
10:00 AM48.2 °F30.2 °F50 %30.01 in6.2 miWNW (290°)29.9 mphPartly Cloudy
10:30 AM48.2 °F30.2 °F50 %30.01 in6.2 miWNW (300°)28.8 mphPartly Cloudy
11:00 AM49.0 °F30.0 °F35 %30.04 in25.0 miWNW (290°)26.8 mphScattered Clouds
11:00 AM50.0 °F30.2 °F47 %30.04 in6.2 miWNW (300°)27.6 mphPartly Cloudy
11:30 AM50.0 °F30.2 °F47 %30.04 in6.2 miWNW (300°)31.1 mphPartly Cloudy
12:00 PM50.0 °F28.4 °F43 %30.01 in6.2 miWNW (300°)28.8 mphPartly Cloudy
12:00 PM51.0 °F28.0 °F29 %30.04 in25.0 miWNW (300°)29.1 mphScattered Clouds
12:30 PM51.8 °F28.4 °F41 %30.01 in6.2 miWNW (300°)27.6 mphPartly Cloudy
1:00 PM51.0 °F32.0 °F35 %30.01 in25.0 miWNW (290°)26.8 mphScattered Clouds
1:00 PM50.0 °F32.0 °F50 %30.01 in6.2 miWNW (300°)27.6 mph39.1 mphPartly Cloudy
1:30 PM50.0 °F32.0 °F50 %30.01 in6.2 miNW (310°)24.2 mphPartly Cloudy
2:00 PM50.0 °F30.0 °F33 %30.01 in25.0 miWNW (300°)29.1 mphScattered Clouds
2:00 PM50.0 °F30.2 °F47 %29.98 in6.2 miWNW (300°)29.9 mphPartly Cloudy
2:30 PM50.0 °F30.2 °F47 %29.98 in6.2 miWNW (300°)26.5 mphPartly Cloudy
3:00 PM48.2 °F30.2 °F50 %29.98 in6.2 miWNW (300°)24.2 mphPartly Cloudy
3:00 PM49.0 °F29.0 °F34 %29.99 in25.0 miWNW (300°)24.6 mphScattered Clouds
3:30 PM48.2 °F28.4 °F46 %29.95 in6.2 miWNW (300°)24.2 mphPartly Cloudy
4:00 PM49.0 °F28.0 °F31 %29.95 in25.0 miWNW (300°)20.1 mphMostly Cloudy
4:00 PM48.2 °F28.4 °F46 %29.92 inWNW (300°)20.7 mphClear
4:30 PM50.0 °F28.4 °F43 %29.92 inWNW (300°)24.2 mphClear
5:00 PM50.0 °F28.0 °F29 %29.91 in22.0 miWNW (290°)17.9 mphMostly Cloudy
5:00 PM50.0 °F26.6 °F40 %29.89 inWNW (290°)18.4 mphClear
5:30 PM50.0 °F26.6 °F40 %29.89 inWNW (300°)13.8 mphClear
6:00 PM50.0 °F26.6 °F40 %29.89 inNW (320°)13.8 mphClear
6:00 PM50.0 °F27.0 °F27 %29.90 in19.0 miNW (310°)13.4 mphMostly Cloudy
6:30 PM50.0 °F26.6 °F40 %29.89 inWNW (290°)9.2 mphClear
7:00 PM47.0 °F28.0 °F34 %29.93 in19.0 miWSW (240°)8.9 mphMostly Cloudy
7:00 PM46.4 °F28.4 °F50 %29.89 inWSW (240°)9.2 mphClear
7:30 PM46.4 °F24.8 °F43 %29.89 inWSW (250°)9.2 mphClear
8:00 PM50.0 °F26.0 °F26 %29.91 in19.0 miWSW (250°)11.2 mphMostly Cloudy
8:00 PM50.0 °F24.8 °F37 %29.89 inWest (260°)10.4 mphClear
8:30 PM51.8 °F26.6 °F38 %29.86 in6.2 miWest (260°)10.4 mphRainLight Rain
9:00 PM51.8 °F26.6 °F38 %29.86 inWNW (290°)25.3 mphClear
9:00 PM52.0 °F27.0 °F25 %29.88 in16.0 miWest (280°)24.6 mphRainLight Rain
9:30 PM51.8 °F26.6 °F38 %29.86 inWNW (290°)21.9 mphClear
10:00 PM51.0 °F28.0 °F28 %29.87 in16.0 miWest (280°)20.1 mphPartly Cloudy
10:00 PM51.8 °F28.4 °F41 %29.86 inWNW (290°)20.7 mphClear
10:30 PM51.8 °F30.2 °F44 %29.86 in6.2 miWNW (290°)24.2 mph39.1 mphRainLight Rain Showers
11:00 PM49.0 °F31.0 °F37 %29.86 in19.0 miWNW (300°)20.1 mphRainLight Rain Showers
11:00 PM50.0 °F30.2 °F47 %29.83 inNW (310°)19.6 mphClear
11:30 PM51.8 °F28.4 °F41 %29.83 inWNW (290°)20.7 mphClear
Hourly data recorded from LZIB, located miles away from Mosonmagyarovar, Hungary







STORIES FROM OUR PARTNERS